| time (UTC) | temp F | wind direction | speed MPH | gust MPH | rain 1hr in | rain 24hr in | rain mn in | humidity % | barometer mb |
| 20260504045857 | 50 | 49 | 0.0 | 2.0 | 0.00 | 0.00 | 0.00 | 52 | 1013.4 |
| 20260504044918 | 50 | 52 | 0.0 | 4.0 | 0.00 | 0.00 | 0.00 | 52 | 1013.4 |
| 20260504043915 | 50 | 57 | 1.0 | 5.0 | 0.00 | 0.00 | 0.00 | 50 | 1013.3 |
| 20260504042935 | 50 | 41 | 2.0 | 5.0 | 0.00 | 0.00 | 0.00 | 50 | 1013.4 |
| 20260504041940 | 50 | 47 | 1.0 | 6.0 | 0.00 | 0.00 | 0.00 | 50 | 1013.3 |
| 20260504041002 | 50 | 52 | 2.0 | 6.0 | 0.00 | 0.00 | 0.00 | 50 | 1013.3 |
| 20260504040024 | 50 | 49 | 3.0 | 6.0 | 0.00 | 0.00 | 0.00 | 50 | 1013.3 |
| 20260504035042 | 50 | 46 | 2.0 | 5.0 | 0.00 | 0.00 | 0.00 | 51 | 1013.3 |
| 20260504032917 | 50 | 53 | 1.0 | 3.0 | 0.00 | 0.00 | 0.00 | 50 | 1013.3 |
| 20260504031852 | 50 | 45 | 1.0 | 4.0 | 0.00 | 0.00 | 0.00 | 50 | 1013.3 |
| 20260504030909 | 50 | 44 | 1.0 | 4.0 | 0.00 | 0.00 | 0.00 | 50 | 1013.4 |
| 20260504025902 | 50 | 40 | 1.0 | 3.0 | 0.00 | 0.00 | 0.00 | 50 | 1013.5 |
| 20260504024916 | 51 | 40 | 1.0 | 3.0 | 0.00 | 0.00 | 0.00 | 49 | 1013.5 |
| 20260504023913 | 51 | 48 | 0.0 | 3.0 | 0.00 | 0.00 | 0.00 | 49 | 1013.5 |
| 20260504022917 | 52 | 45 | 1.0 | 3.0 | 0.00 | 0.00 | 0.00 | 48 | 1013.5 |
| 20260504021920 | 52 | 47 | 2.0 | 5.0 | 0.00 | 0.00 | 0.00 | 47 | 1013.6 |
| 20260504020853 | 52 | 45 | 2.0 | 5.0 | 0.00 | 0.00 | 0.00 | 47 | 1013.6 |
| 20260504015830 | 52 | 51 | 2.0 | 4.0 | 0.00 | 0.00 | 0.00 | 47 | 1013.6 |
| 20260504012659 | 52 | 52 | 1.0 | 2.0 | 0.00 | 0.00 | 0.00 | 47 | 1013.4 |
| 20260504011637 | 52 | 49 | 0.0 | 2.0 | 0.00 | 0.00 | 0.00 | 47 | 1013.5 |
| 20260504010641 | 53 | 49 | 1.0 | 3.0 | 0.00 | 0.00 | 0.00 | 45 | 1013.4 |
| 20260504005608 | 54 | 52 | 1.0 | 4.0 | 0.00 | 0.00 | 0.00 | 44 | 1013.4 |
| 20260504004614 | 54 | 50 | 0.0 | 4.0 | 0.00 | 0.00 | 0.00 | 44 | 1013.3 |
| 20260504003634 | 54 | 44 | 0.0 | 3.0 | 0.00 | 0.00 | 0.00 | 44 | 1013.3 |
| 20260504001534 | 54 | 46 | 0.0 | 4.0 | 0.00 | 0.00 | 0.00 | 44 | 1013.4 |
| 20260504000513 | 55 | 48 | 0.0 | 4.0 | 0.00 | 0.00 | 0.00 | 43 | 1013.3 |
| 20260503235507 | 55 | 49 | 0.0 | 4.0 | 0.00 | 0.00 | 0.00 | 43 | 1013.3 |
| 20260503234457 | 55 | 77 | 1.0 | 4.0 | 0.00 | 0.00 | 0.00 | 44 | 1013.4 |
| 20260503233424 | 55 | 60 | 1.0 | 4.0 | 0.00 | 0.00 | 0.00 | 43 | 1013.4 |
| 20260503232439 | 56 | 54 | 0.0 | 1.0 | 0.00 | 0.00 | 0.00 | 43 | 1013.4 |
| 20260503231410 | 56 | 103 | 1.0 | 5.0 | 0.00 | 0.00 | 0.00 | 43 | 1013.4 |
| 20260503230433 | 56 | 111 | 3.0 | 10.0 | 0.00 | 0.00 | 0.00 | 42 | 1013.5 |
| 20260503225421 | 56 | 104 | 5.0 | 11.0 | 0.00 | 0.00 | 0.00 | 40 | 1013.5 |
| 20260503224412 | 57 | 93 | 2.0 | 11.0 | 0.00 | 0.00 | 0.00 | 41 | 1013.6 |
| 20260503223346 | 57 | 56 | 1.0 | 9.0 | 0.00 | 0.00 | 0.00 | 41 | 1013.6 |
| 20260503222317 | 56 | 103 | 3.0 | 9.0 | 0.00 | 0.00 | 0.00 | 41 | 1013.7 |
| 20260503221319 | 57 | 101 | 2.0 | 7.0 | 0.00 | 0.00 | 0.00 | 41 | 1013.7 |
| 20260503220312 | 57 | 37 | 2.0 | 7.0 | 0.00 | 0.00 | 0.00 | 39 | 1013.7 |
| 20260503215301 | 57 | 96 | 2.0 | 7.0 | 0.00 | 0.00 | 0.00 | 42 | 1013.7 |
| 20260503214247 | 57 | 90 | 3.0 | 8.0 | 0.00 | 0.00 | 0.00 | 39 | 1013.7 |
| 20260503212130 | 58 | 94 | 4.0 | 14.0 | 0.00 | 0.00 | 0.00 | 40 | 1013.5 |
| 20260503211104 | 58 | 105 | 6.0 | 14.0 | 0.00 | 0.00 | 0.00 | 38 | 1013.6 |
| 20260503210107 | 58 | 91 | 6.0 | 14.0 | 0.00 | 0.00 | 0.00 | 42 | 1013.6 |
| 20260503205044 | 58 | 90 | 5.0 | 12.0 | 0.00 | 0.00 | 0.00 | 41 | 1013.7 |
| 20260503204036 | 58 | 94 | 3.0 | 10.0 | 0.00 | 0.00 | 0.00 | 41 | 1013.9 |
| 20260503203003 | 57 | 88 | 5.0 | 11.0 | 0.00 | 0.00 | 0.00 | 40 | 1014.1 |
| 20260503195632 | 56 | 86 | 4.0 | 10.0 | 0.00 | 0.00 | 0.00 | 42 | 1014.4 |
| 20260503194638 | 55 | 98 | 3.0 | 16.0 | 0.00 | 0.00 | 0.00 | 42 | 1014.5 |
| 20260503193605 | 56 | 110 | 3.0 | 9.0 | 0.00 | 0.00 | 0.00 | 42 | 1014.7 |
| 20260503192542 | 55 | 98 | 4.0 | 12.0 | 0.00 | 0.00 | 0.00 | 41 | 1014.7 |
| 20260503191521 | 56 | 121 | 4.0 | 17.0 | 0.00 | 0.00 | 0.00 | 41 | 1014.8 |
| 20260503190533 | 56 | 98 | 4.0 | 17.0 | 0.00 | 0.00 | 0.00 | 43 | 1015.1 |
| 20260503184414 | 55 | 97 | 4.0 | 12.0 | 0.00 | 0.00 | 0.00 | 42 | 1015.4 |
| 20260503181113 | 54 | 123 | 4.0 | 9.0 | 0.00 | 0.00 | 0.00 | 48 | 1015.7 |
| 20260503180045 | 54 | 103 | 3.0 | 13.0 | 0.00 | 0.00 | 0.00 | 43 | 1015.7 |
| 20260503175038 | 54 | 101 | 5.0 | 13.0 | 0.00 | 0.00 | 0.00 | 44 | 1015.8 |
| 20260503172934 | 54 | 88 | 5.0 | 13.0 | 0.00 | 0.00 | 0.00 | 43 | 1016.1 |
| 20260503171901 | 54 | 111 | 5.0 | 11.0 | 0.00 | 0.00 | 0.00 | 43 | 1016.2 |
| 20260503170908 | 54 | 95 | 3.0 | 7.0 | 0.00 | 0.00 | 0.00 | 45 | 1016.2 |
| 20260503150638 | 49 | 107 | 5.0 | 14.0 | 0.00 | 0.00 | 0.00 | 47 | 1017.2 |
| 20260503130426 | 43 | 96 | 3.0 | 10.0 | 0.00 | 0.00 | 0.00 | 62 | 1017.4 |
| 20260503080707 | 36 | 102 | 0.0 | 2.0 | 0.00 | 0.01 | 0.00 | 1 | 1015.7 |